SDM6420 USSS-ULLI

Flight info

Callsign SDM6420
Flight time N/A
Altitude 36000
Route LUNAG6K LUNAG N170 PENUS T762 GEBSI M60 INSOK P979 BEPOL BEPOL1B
Aircraft B738/M-SDE2E3FGHIRWXY/LB1

Departure

Time N/A
Airport Koltsovo Airport (USSS)

Arrival

Time 2026-05-03 22:23
Airport Pulkovo Airport (ULLI)
Time Latitude Longitude Altitude Speed Heading
2026-05-03 20:15 58.39606 54.41350 35975 ft 442 kts 287°
2026-05-03 20:15 58.41407 54.30125 35972 ft 443 kts 287°
2026-05-03 20:16 58.42910 54.20691 35974 ft 444 kts 287°
2026-05-03 20:16 58.44698 54.09403 35973 ft 446 kts 287°
2026-05-03 20:17 58.46485 53.98050 35963 ft 447 kts 287°
2026-05-03 20:17 58.48267 53.86644 35965 ft 448 kts 287°
2026-05-03 20:18 58.50042 53.75218 35963 ft 448 kts 287°
2026-05-03 20:18 58.51807 53.63786 35956 ft 448 kts 287°
2026-05-03 20:19 58.53561 53.52352 35953 ft 447 kts 287°
2026-05-03 20:19 58.55287 53.41021 35950 ft 445 kts 286°
2026-05-03 20:20 58.57017 53.29591 35946 ft 443 kts 286°
2026-05-03 20:20 58.58711 53.18314 35942 ft 442 kts 286°
2026-05-03 20:21 58.60396 53.07022 35944 ft 440 kts 286°
2026-05-03 20:21 58.62069 52.95739 35936 ft 438 kts 286°
2026-05-03 20:22 58.63725 52.84500 35934 ft 437 kts 286°
2026-05-03 20:22 58.65369 52.73259 35936 ft 436 kts 286°
2026-05-03 20:23 58.67004 52.62030 35930 ft 436 kts 286°
2026-05-03 20:23 58.68632 52.50789 35927 ft 437 kts 286°
2026-05-03 20:24 58.70250 52.39533 35930 ft 438 kts 286°
2026-05-03 20:24 58.71861 52.28251 35921 ft 439 kts 285°
2026-05-03 20:25 58.73474 52.16878 35921 ft 440 kts 285°
2026-05-03 20:25 58.75078 52.05494 35920 ft 441 kts 285°
2026-05-03 20:26 58.76668 51.94146 35903 ft 442 kts 285°
2026-05-03 20:26 58.78261 51.82712 35891 ft 443 kts 285°
2026-05-03 20:27 58.79850 51.71221 35888 ft 443 kts 285°
2026-05-03 20:27 58.81424 51.59757 35886 ft 442 kts 285°
2026-05-03 20:28 58.82984 51.48307 35889 ft 441 kts 285°
2026-05-03 20:28 58.84532 51.36860 35886 ft 439 kts 285°
2026-05-03 20:29 58.86063 51.25473 35886 ft 437 kts 285°
2026-05-03 20:29 58.87569 51.14173 35886 ft 436 kts 284°
2026-05-03 20:30 58.89076 51.02757 35890 ft 435 kts 284°
2026-05-03 20:30 58.90560 50.91424 35881 ft 434 kts 284°
2026-05-03 20:31 58.92031 50.80117 35885 ft 433 kts 284°
2026-05-03 20:31 58.93492 50.68813 35870 ft 433 kts 284°
2026-05-03 20:32 58.95010 50.57532 35881 ft 433 kts 287°
2026-05-03 20:32 58.96768 50.46391 35886 ft 432 kts 287°
2026-05-03 20:33 58.98492 50.35217 35881 ft 433 kts 287°
2026-05-03 20:33 59.00162 50.23991 35880 ft 434 kts 286°
2026-05-03 20:34 59.01808 50.12742 35868 ft 434 kts 286°
2026-05-03 20:34 59.03452 50.01455 35878 ft 434 kts 286°
2026-05-03 20:35 59.05088 49.90165 35881 ft 434 kts 285°
2026-05-03 20:35 59.06710 49.78899 35865 ft 435 kts 285°
2026-05-03 20:36 59.08332 49.67568 35872 ft 434 kts 285°
2026-05-03 20:36 59.09939 49.56259 35865 ft 434 kts 285°
2026-05-03 20:37 59.11539 49.44938 35874 ft 433 kts 285°
2026-05-03 20:37 59.13147 49.33483 35874 ft 432 kts 285°
2026-05-03 20:38 59.14721 49.22192 35863 ft 432 kts 285°
2026-05-03 20:38 59.16283 49.10903 35863 ft 431 kts 285°
2026-05-03 20:39 59.17832 48.99630 35857 ft 430 kts 285°
2026-05-03 20:39 59.19373 48.88348 35866 ft 429 kts 285°
2026-05-03 20:40 59.20876 48.77162 35855 ft 428 kts 283°
2026-05-03 20:40 59.22139 48.65729 35857 ft 428 kts 281°
2026-05-03 20:41 59.23294 48.54342 35860 ft 427 kts 281°
2026-05-03 20:41 59.24454 48.43030 35863 ft 427 kts 281°
2026-05-03 20:42 59.25637 48.31610 35858 ft 427 kts 281°
2026-05-03 20:42 59.26812 48.20240 35861 ft 426 kts 281°
2026-05-03 20:43 59.27972 48.08931 35859 ft 426 kts 281°
2026-05-03 20:43 59.29128 47.97563 35859 ft 426 kts 281°
2026-05-03 20:44 59.30273 47.86180 35857 ft 426 kts 281°
2026-05-03 20:44 59.31405 47.74820 35867 ft 425 kts 281°
2026-05-03 20:45 59.32525 47.63471 35860 ft 425 kts 281°
2026-05-03 20:45 59.33638 47.52092 35857 ft 424 kts 280°
2026-05-03 20:46 59.34744 47.40688 35858 ft 423 kts 280°
2026-05-03 20:46 59.35830 47.29360 35860 ft 423 kts 280°
2026-05-03 20:47 59.36908 47.18009 35856 ft 423 kts 280°
2026-05-03 20:47 59.37976 47.06660 35856 ft 423 kts 280°
2026-05-03 20:48 59.39034 46.95304 35857 ft 423 kts 280°
2026-05-03 20:48 59.40081 46.83956 35858 ft 423 kts 280°
2026-05-03 20:49 59.40945 46.74496 35851 ft 423 kts 279°
2026-05-03 20:49 59.41974 46.63139 35855 ft 423 kts 279°
2026-05-03 20:50 59.42998 46.51711 35853 ft 422 kts 279°
2026-05-03 20:50 59.44007 46.40338 35856 ft 422 kts 279°
2026-05-03 20:51 59.45001 46.29004 35846 ft 421 kts 279°
2026-05-03 20:51 59.45989 46.17629 35855 ft 420 kts 279°
2026-05-03 20:52 59.46960 46.06322 35843 ft 419 kts 279°
2026-05-03 20:52 59.47921 45.95027 35849 ft 418 kts 278°
2026-05-03 20:53 59.48868 45.83771 35863 ft 417 kts 278°
2026-05-03 20:53 59.49799 45.72589 35864 ft 415 kts 278°
2026-05-03 20:54 59.50723 45.61379 35866 ft 415 kts 278°
2026-05-03 20:54 59.52051 45.44539 35864 ft 415 kts 277°
2026-05-03 20:55 59.52744 45.33297 35864 ft 414 kts 276°
2026-05-03 20:55 59.53421 45.21978 35860 ft 415 kts 276°
2026-05-03 20:56 59.54106 45.10701 35867 ft 415 kts 276°
2026-05-03 20:56 59.54796 44.99301 35868 ft 416 kts 276°
2026-05-03 20:57 59.55466 44.88084 35865 ft 417 kts 276°
2026-05-03 20:57 59.56139 44.76635 35856 ft 417 kts 276°
2026-05-03 20:58 59.56897 44.65186 35855 ft 418 kts 277°
2026-05-03 20:58 59.57738 44.53811 35861 ft 418 kts 277°
2026-05-03 20:59 59.58561 44.42402 35853 ft 417 kts 277°
2026-05-03 20:59 59.59347 44.31176 35860 ft 417 kts 276°
2026-05-03 21:00 59.60003 44.21678 35864 ft 415 kts 276°
2026-05-03 21:00 59.60902 44.08505 35864 ft 413 kts 276°
2026-05-03 21:01 59.61657 43.97243 35856 ft 412 kts 276°
2026-05-03 21:01 59.62402 43.85978 35861 ft 411 kts 276°
2026-05-03 21:02 59.63134 43.74785 35864 ft 409 kts 276°
2026-05-03 21:02 59.63854 43.63622 35850 ft 409 kts 276°
2026-05-03 21:03 59.64563 43.52485 35841 ft 409 kts 276°
2026-05-03 21:03 59.65262 43.41331 35845 ft 409 kts 276°
2026-05-03 21:04 59.65954 43.30157 35847 ft 409 kts 276°
2026-05-03 21:04 59.66632 43.19045 35845 ft 410 kts 276°
2026-05-03 21:05 59.67307 43.07830 35844 ft 411 kts 276°
2026-05-03 21:05 59.67979 42.96501 35842 ft 412 kts 275°
2026-05-03 21:06 59.68638 42.85223 35845 ft 413 kts 275°
2026-05-03 21:06 59.69290 42.73916 35843 ft 413 kts 275°
2026-05-03 21:07 59.69930 42.62620 35846 ft 413 kts 275°
2026-05-03 21:07 59.70536 42.51292 35842 ft 413 kts 275°
2026-05-03 21:08 59.71122 42.39980 35845 ft 412 kts 274°
2026-05-03 21:08 59.71699 42.28717 35855 ft 410 kts 275°
2026-05-03 21:09 59.72265 42.17511 35840 ft 408 kts 275°
2026-05-03 21:09 59.72819 42.06370 35834 ft 405 kts 275°
2026-05-03 21:10 59.73358 41.95315 35839 ft 401 kts 275°
2026-05-03 21:10 59.73885 41.84339 35837 ft 399 kts 275°
2026-05-03 21:11 59.74401 41.73412 35843 ft 396 kts 275°
2026-05-03 21:11 59.74906 41.62537 35840 ft 396 kts 275°
2026-05-03 21:12 59.75372 41.51642 35840 ft 396 kts 274°
2026-05-03 21:12 59.75790 41.40717 35848 ft 398 kts 274°
2026-05-03 21:13 59.76203 41.29748 35847 ft 400 kts 274°
2026-05-03 21:13 59.76615 41.18687 35849 ft 403 kts 274°
2026-05-03 21:14 59.77024 41.07492 35842 ft 406 kts 274°
2026-05-03 21:14 59.77424 40.96291 35846 ft 408 kts 274°
2026-05-03 21:15 59.77816 40.85037 35844 ft 409 kts 274°
2026-05-03 21:15 59.78200 40.73754 35840 ft 409 kts 274°
2026-05-03 21:16 59.78511 40.64390 35845 ft 408 kts 274°
2026-05-03 21:16 59.78876 40.53149 35852 ft 407 kts 274°
2026-05-03 21:17 59.79229 40.41964 35850 ft 405 kts 273°
2026-05-03 21:17 59.79574 40.30767 35851 ft 403 kts 273°
2026-05-03 21:18 59.79908 40.19637 35854 ft 402 kts 273°
2026-05-03 21:18 59.80110 40.08571 35836 ft 401 kts 271°
2026-05-03 21:19 59.80162 39.97516 35822 ft 399 kts 270°
2026-05-03 21:19 59.80226 39.86518 35812 ft 398 kts 271°
2026-05-03 21:20 59.80300 39.75537 35805 ft 397 kts 271°
2026-05-03 21:20 59.80366 39.64613 35804 ft 396 kts 271°
2026-05-03 21:21 59.80427 39.53667 35807 ft 396 kts 271°
2026-05-03 21:21 59.80481 39.42679 35808 ft 397 kts 271°
2026-05-03 21:22 59.80508 39.31694 35804 ft 398 kts 270°
2026-05-03 21:22 59.80483 39.20668 35807 ft 400 kts 270°
2026-05-03 21:23 59.80447 39.09587 35809 ft 401 kts 270°
2026-05-03 21:23 59.80409 38.98480 35806 ft 403 kts 270°
2026-05-03 21:24 59.80362 38.87354 35808 ft 404 kts 270°
2026-05-03 21:24 59.80306 38.76182 35808 ft 404 kts 270°
2026-05-03 21:25 59.80241 38.65025 35809 ft 404 kts 270°
2026-05-03 21:25 59.80167 38.53875 35799 ft 404 kts 269°
2026-05-03 21:26 59.80083 38.42720 35802 ft 402 kts 269°
2026-05-03 21:26 59.79992 38.31631 35809 ft 400 kts 269°
2026-05-03 21:27 59.79891 38.20596 35798 ft 399 kts 270°
2026-05-03 21:27 59.80600 38.09724 35809 ft 397 kts 284°
2026-05-03 21:28 59.82641 37.99454 35810 ft 398 kts 292°
2026-05-03 21:28 59.84981 37.89493 35806 ft 397 kts 292°
2026-05-03 21:29 59.87295 37.79551 35804 ft 396 kts 292°
2026-05-03 21:29 59.89583 37.69583 35806 ft 396 kts 292°
2026-05-03 21:30 59.91846 37.59637 35805 ft 396 kts 292°
2026-05-03 21:30 59.94132 37.49548 35806 ft 397 kts 292°
2026-05-03 21:31 59.96402 37.39480 35806 ft 399 kts 292°
2026-05-03 21:31 59.98675 37.29350 35809 ft 400 kts 292°
2026-05-03 21:32 60.00947 37.19173 35811 ft 401 kts 292°
2026-05-03 21:32 60.03218 37.08958 35809 ft 402 kts 291°
2026-05-03 21:33 60.05470 36.98781 35802 ft 402 kts 291°
2026-05-03 21:33 60.07721 36.88528 35802 ft 402 kts 291°
2026-05-03 21:34 60.09962 36.78270 35804 ft 400 kts 291°
2026-05-03 21:34 60.12194 36.68077 35804 ft 399 kts 291°
2026-05-03 21:35 60.14470 36.57829 35801 ft 398 kts 291°
2026-05-03 21:35 60.16732 36.47606 35805 ft 397 kts 291°
2026-05-03 21:36 60.18944 36.37538 35803 ft 396 kts 291°
2026-05-03 21:36 60.21156 36.27411 35803 ft 395 kts 291°
2026-05-03 21:37 60.23371 36.17219 35806 ft 394 kts 291°
2026-05-03 21:37 60.25560 36.07103 35806 ft 394 kts 291°
2026-05-03 21:38 60.27739 35.96983 35807 ft 394 kts 291°
2026-05-03 21:38 60.29903 35.86883 35806 ft 395 kts 291°
2026-05-03 21:39 60.32075 35.76692 35811 ft 395 kts 291°
2026-05-03 21:39 60.34239 35.66493 35805 ft 396 kts 291°
2026-05-03 21:40 60.36401 35.56249 35808 ft 396 kts 290°
2026-05-03 21:40 60.38560 35.45972 35810 ft 397 kts 290°
2026-05-03 21:41 60.40709 35.35689 35803 ft 397 kts 290°
2026-05-03 21:41 60.42854 35.25386 35808 ft 397 kts 290°
2026-05-03 21:42 60.44134 35.14629 35816 ft 393 kts 273°
2026-05-03 21:42 60.43665 35.03651 35820 ft 393 kts 258°
2026-05-03 21:43 60.42297 34.92940 35820 ft 393 kts 257°
2026-05-03 21:43 60.40895 34.82218 35812 ft 394 kts 257°
2026-05-03 21:44 60.40198 34.76828 35401 ft 400 kts 257°
2026-05-03 21:44 60.39501 34.71414 34918 ft 398 kts 257°
2026-05-03 21:44 60.38808 34.66019 34537 ft 392 kts 257°
2026-05-03 21:44 60.38124 34.60697 34066 ft 390 kts 257°
2026-05-03 21:45 60.37443 34.55418 33654 ft 386 kts 257°
2026-05-03 21:45 60.36768 34.50196 33232 ft 382 kts 257°
2026-05-03 21:45 60.36099 34.45038 32825 ft 378 kts 257°
2026-05-03 21:45 60.35434 34.39928 32418 ft 374 kts 258°
2026-05-03 21:46 60.34775 34.34881 32020 ft 369 kts 258°
2026-05-03 21:46 60.34123 34.29902 31623 ft 365 kts 258°
2026-05-03 21:46 60.33693 34.26627 31374 ft 362 kts 258°
2026-05-03 21:46 60.33032 34.21612 31033 ft 357 kts 258°
2026-05-03 21:47 60.32403 34.16848 30607 ft 354 kts 258°
2026-05-03 21:47 60.31765 34.12032 30220 ft 350 kts 259°
2026-05-03 21:47 60.31138 34.07313 29854 ft 346 kts 259°
2026-05-03 21:47 60.30516 34.02655 29464 ft 342 kts 259°
2026-05-03 21:48 60.29901 33.98061 29101 ft 338 kts 259°
2026-05-03 21:48 60.29290 33.93503 28703 ft 334 kts 258°
2026-05-03 21:48 60.28686 33.89008 28323 ft 330 kts 258°
2026-05-03 21:48 60.28097 33.84633 27970 ft 326 kts 258°
2026-05-03 21:49 60.27497 33.80193 27584 ft 323 kts 258°
2026-05-03 21:49 60.26906 33.75842 27206 ft 320 kts 258°
2026-05-03 21:49 60.26328 33.71594 26844 ft 317 kts 257°
2026-05-03 21:49 60.25749 33.67338 26484 ft 314 kts 257°
2026-05-03 21:50 60.25171 33.63108 26122 ft 312 kts 257°
2026-05-03 21:50 60.24599 33.58924 25766 ft 309 kts 257°
2026-05-03 21:50 60.24026 33.54761 25411 ft 306 kts 257°
2026-05-03 21:50 60.23459 33.50643 25058 ft 304 kts 257°
2026-05-03 21:51 60.22894 33.46552 24710 ft 302 kts 256°
2026-05-03 21:51 60.22333 33.42503 24364 ft 300 kts 256°
2026-05-03 21:51 60.21771 33.38451 24021 ft 300 kts 256°
2026-05-03 21:51 60.21208 33.34403 23678 ft 300 kts 256°
2026-05-03 21:52 60.20638 33.30308 23346 ft 309 kts 256°
2026-05-03 21:52 60.20052 33.26097 22986 ft 316 kts 256°
2026-05-03 21:52 60.19453 33.21837 22609 ft 315 kts 256°
2026-05-03 21:52 60.18859 33.17620 22241 ft 313 kts 256°
2026-05-03 21:53 60.18267 33.13426 21825 ft 312 kts 256°
2026-05-03 21:53 60.17674 33.09242 21393 ft 312 kts 256°
2026-05-03 21:53 60.17082 33.05068 21022 ft 310 kts 256°
2026-05-03 21:53 60.16491 33.00917 20644 ft 308 kts 256°
2026-05-03 21:54 60.15903 32.96797 20283 ft 306 kts 256°
2026-05-03 21:54 60.15321 32.92722 19932 ft 303 kts 256°
2026-05-03 21:54 60.14739 32.88656 19543 ft 302 kts 256°
2026-05-03 21:54 60.14159 32.84616 19158 ft 301 kts 256°
2026-05-03 21:55 60.13578 32.80573 18782 ft 300 kts 256°
2026-05-03 21:55 60.12999 32.76555 18409 ft 299 kts 256°
2026-05-03 21:55 60.12423 32.72570 18054 ft 297 kts 256°
2026-05-03 21:55 60.11848 32.68602 17681 ft 296 kts 256°
2026-05-03 21:56 60.11274 32.64650 17309 ft 295 kts 256°
2026-05-03 21:56 60.10700 32.60709 16960 ft 293 kts 255°
2026-05-03 21:56 60.10138 32.56855 16592 ft 292 kts 256°
2026-05-03 21:56 60.09561 32.52913 16233 ft 291 kts 256°
2026-05-03 21:57 60.08994 32.49038 15894 ft 288 kts 255°
2026-05-03 21:57 60.08435 32.45235 15758 ft 280 kts 256°
2026-05-03 21:57 60.07901 32.41603 15694 ft 270 kts 256°
2026-05-03 21:57 60.07379 32.38069 15613 ft 260 kts 256°
2026-05-03 21:58 60.06869 32.34625 15532 ft 249 kts 255°
2026-05-03 21:58 60.06374 32.31313 15254 ft 248 kts 256°
2026-05-03 21:58 60.05967 32.28052 15022 ft 243 kts 267°
2026-05-03 21:58 60.06078 32.24719 14796 ft 239 kts 281°
2026-05-03 21:59 60.06630 32.21580 14505 ft 241 kts 294°
2026-05-03 21:59 60.07615 32.18843 14263 ft 245 kts 310°
2026-05-03 21:59 60.08997 32.16776 14009 ft 254 kts 326°
2026-05-03 21:59 60.10703 32.15634 13761 ft 266 kts 344°
2026-05-03 22:00 60.12589 32.15716 13512 ft 279 kts
2026-05-03 22:00 60.14424 32.17226 13260 ft 293 kts 28°
2026-05-03 22:00 60.15924 32.20076 13009 ft 304 kts 50°
2026-05-03 22:00 60.16778 32.24018 12764 ft 320 kts 80°
2026-05-03 22:01 60.16698 32.28649 12575 ft 343 kts 107°
2026-05-03 22:01 60.15672 32.32959 12336 ft 343 kts 133°
2026-05-03 22:01 60.13900 32.35976 12083 ft 329 kts 160°
2026-05-03 22:01 60.11777 32.37059 11825 ft 307 kts 187°
2026-05-03 22:02 60.09747 32.36340 11576 ft 288 kts 209°
2026-05-03 22:02 60.08059 32.34381 11321 ft 274 kts 224°
2026-05-03 22:02 60.06757 32.31762 11061 ft 264 kts 240°
2026-05-03 22:02 60.05905 32.28590 10810 ft 256 kts 252°
2026-05-03 22:03 60.05327 32.25252 10552 ft 251 kts 254°
2026-05-03 22:03 60.04788 32.21992 10275 ft 242 kts 254°
2026-05-03 22:03 60.04268 32.18847 10021 ft 234 kts 254°
2026-05-03 22:03 60.03761 32.15803 9757 ft 228 kts 254°
2026-05-03 22:04 60.03256 32.12794 9510 ft 228 kts 254°
2026-05-03 22:04 60.02748 32.09784 9271 ft 229 kts 254°
2026-05-03 22:04 60.02237 32.06768 9024 ft 229 kts 253°
2026-05-03 22:04 60.01722 32.03748 8772 ft 229 kts 253°
2026-05-03 22:05 60.01210 32.00755 8551 ft 224 kts 253°
2026-05-03 22:05 60.00710 31.97855 8293 ft 217 kts 253°
2026-05-03 22:05 60.00222 31.95028 8030 ft 213 kts 253°
2026-05-03 22:05 59.99746 31.92274 7765 ft 208 kts 253°
2026-05-03 22:06 59.99280 31.89572 7511 ft 203 kts 253°
2026-05-03 22:06 59.98825 31.86941 7251 ft 199 kts 253°
2026-05-03 22:06 59.98377 31.84353 6993 ft 196 kts 253°
2026-05-03 22:06 59.97933 31.81784 6746 ft 195 kts 254°
2026-05-03 22:07 59.97492 31.79239 6496 ft 194 kts 253°
2026-05-03 22:07 59.97049 31.76697 6244 ft 193 kts 253°
2026-05-03 22:07 59.96610 31.74179 5996 ft 193 kts 253°
2026-05-03 22:07 59.96167 31.71644 5910 ft 194 kts 253°
2026-05-03 22:08 59.95719 31.69073 5880 ft 198 kts 253°
2026-05-03 22:08 59.95263 31.66477 5850 ft 197 kts 253°
2026-05-03 22:08 59.94816 31.63921 5843 ft 194 kts 253°
2026-05-03 22:08 59.94367 31.61373 5853 ft 194 kts 253°
2026-05-03 22:09 59.93918 31.58821 5853 ft 196 kts 253°
2026-05-03 22:09 59.93470 31.56280 5865 ft 197 kts 253°
2026-05-03 22:09 59.93014 31.53696 5853 ft 198 kts 253°
2026-05-03 22:10 59.92099 31.48514 5851 ft 199 kts 253°
2026-05-03 22:10 59.91639 31.45913 5853 ft 198 kts 253°
2026-05-03 22:10 59.91171 31.43279 5845 ft 198 kts 253°
2026-05-03 22:10 59.90718 31.40732 5847 ft 197 kts 253°
2026-05-03 22:11 59.90262 31.38161 5844 ft 197 kts 253°
2026-05-03 22:11 59.89805 31.35597 5846 ft 196 kts 253°
2026-05-03 22:11 59.89351 31.33048 5851 ft 195 kts 253°
2026-05-03 22:11 59.88898 31.30505 5851 ft 194 kts 252°
2026-05-03 22:12 59.88445 31.27974 5851 ft 194 kts 253°
2026-05-03 22:12 59.87992 31.25443 5850 ft 194 kts 252°
2026-05-03 22:12 59.87540 31.22917 5848 ft 194 kts 252°
2026-05-03 22:12 59.87083 31.20374 5870 ft 195 kts 252°
2026-05-03 22:13 59.86625 31.17824 5851 ft 197 kts 252°
2026-05-03 22:13 59.86173 31.15239 5788 ft 199 kts 254°
2026-05-03 22:13 59.85764 31.12596 5615 ft 201 kts 255°
2026-05-03 22:13 59.85359 31.09926 5441 ft 200 kts 255°
2026-05-03 22:14 59.84961 31.07301 5273 ft 197 kts 255°
2026-05-03 22:14 59.84567 31.04708 5105 ft 195 kts 255°
2026-05-03 22:14 59.84173 31.02128 4948 ft 195 kts 255°
2026-05-03 22:14 59.83776 30.99535 4794 ft 196 kts 255°
2026-05-03 22:15 59.83391 30.97026 4668 ft 196 kts 255°
2026-05-03 22:15 59.83031 30.94688 4604 ft 193 kts 254°
2026-05-03 22:15 59.82636 30.92126 4451 ft 194 kts 254°
2026-05-03 22:15 59.82239 30.89562 4305 ft 195 kts 254°
2026-05-03 22:16 59.81847 30.87014 4152 ft 196 kts 254°
2026-05-03 22:16 59.81444 30.84416 3989 ft 198 kts 254°
2026-05-03 22:16 59.81035 30.81781 3825 ft 200 kts 254°
2026-05-03 22:16 59.80620 30.79122 3662 ft 202 kts 254°
2026-05-03 22:17 59.80198 30.76464 3500 ft 200 kts 250°
2026-05-03 22:17 59.79596 30.73998 3362 ft 197 kts 243°
2026-05-03 22:17 59.78936 30.71644 3249 ft 191 kts 242°
2026-05-03 22:17 59.78309 30.69398 3131 ft 181 kts 243°
2026-05-03 22:18 59.77710 30.67227 3026 ft 179 kts 243°
2026-05-03 22:18 59.77114 30.65055 2912 ft 178 kts 243°
2026-05-03 22:18 59.76524 30.62905 2805 ft 177 kts 243°
2026-05-03 22:18 59.75938 30.60762 2696 ft 176 kts 243°
2026-05-03 22:19 59.75354 30.58627 2607 ft 177 kts 242°
2026-05-03 22:19 59.74976 30.56326 2502 ft 176 kts 272°
2026-05-03 22:19 59.75194 30.54009 2522 ft 164 kts 286°
2026-05-03 22:19 59.75534 30.51933 2457 ft 156 kts 287°
2026-05-03 22:20 59.75855 30.49881 2303 ft 156 kts 286°
2026-05-03 22:20 59.76163 30.47821 2092 ft 155 kts 285°
2026-05-03 22:20 59.76465 30.45768 1885 ft 154 kts 285°
2026-05-03 22:20 59.76763 30.43727 1690 ft 154 kts 285°
2026-05-03 22:21 59.77063 30.41682 1475 ft 154 kts 285°
2026-05-03 22:21 59.77361 30.39646 1276 ft 154 kts 285°
2026-05-03 22:21 59.77661 30.37604 1071 ft 153 kts 285°
2026-05-03 22:21 59.77957 30.35586 868 ft 152 kts 285°
2026-05-03 22:22 59.78233 30.33620 659 ft 150 kts 285°
2026-05-03 22:22 59.78531 30.31610 450 ft 147 kts 286°
2026-05-03 22:22 59.78823 30.29651 255 ft 149 kts 287°
2026-05-03 22:22 59.79078 30.27977 109 ft 152 kts 287°
2026-05-03 22:23 59.79347 30.26165 81 ft 120 kts 286°
2026-05-03 22:23 59.79541 30.24859 86 ft 77 kts 287°
2026-05-03 22:23 59.79646 30.24164 84 ft 38 kts 287°
2026-05-03 22:23 59.79710 30.23727 80 ft 35 kts 286°
2026-05-03 22:24 59.79795 30.23308 79 ft 31 kts 303°
2026-05-03 22:24 59.79890 30.23085 81 ft 8 kts 317°
2026-05-03 22:24 59.79921 30.23040 75 ft 8 kts 335°
2026-05-03 22:24 59.79970 30.23064 78 ft 9 kts 51°
2026-05-03 22:25 59.79960 30.23232 78 ft 11 kts 104°
2026-05-03 22:25 59.79944 30.23353 73 ft 16 kts 104°
2026-05-03 22:25 59.79906 30.23604 73 ft 22 kts 105°
2026-05-03 22:25 59.79862 30.23893 82 ft 22 kts 108°
2026-05-03 22:26 59.79820 30.24179 81 ft 21 kts 104°
2026-05-03 22:26 59.79779 30.24449 82 ft 20 kts 107°
2026-05-03 22:26 59.79740 30.24714 85 ft 20 kts 107°
2026-05-03 22:26 59.79702 30.24971 82 ft 19 kts 106°
2026-05-03 22:27 59.79665 30.25220 83 ft 18 kts 107°
2026-05-03 22:27 59.79630 30.25462 81 ft 18 kts 106°
2026-05-03 22:27 59.79595 30.25698 86 ft 18 kts 107°
2026-05-03 22:27 59.79558 30.25944 84 ft 20 kts 106°
2026-05-03 22:28 59.79521 30.26193 82 ft 12 kts 100°
2026-05-03 22:28 59.79585 30.26284 85 ft 14 kts 17°
2026-05-03 22:28 59.79687 30.26346 84 ft 16 kts 15°
2026-05-03 22:28 59.79803 30.26412 80 ft 18 kts 18°
2026-05-03 22:29 59.79933 30.26488 85 ft 20 kts 16°
2026-05-03 22:29 59.80053 30.26560 84 ft 11 kts 19°
2026-05-03 22:29 59.80093 30.26559 80 ft 6 kts 320°
2026-05-03 22:29 59.80109 30.26490 80 ft 2 kts 288°
2026-05-03 22:30 59.80111 30.26476 80 ft 0 kts 287°